Terminal Aerodrome Forecast
Issued by NWS

Home | Current Version | Previous Version | Graphics & Text | Print | Product List | Glossary On
Versions: 1 2 3 4 5 6 7 8 9 10 11 12 13 14 15 16 17 18 19 20 21 22 23 24 25 26 27 28 29 30 31 32 33 34
000
FTUS43 KGRB 230200 AAA
TAFRHI
TAF AMD
KRHI 230206Z 2302/2324 22010KT P6SM OVC011 WS015/24035KT
     FM230700 23012KT P6SM OVC009 WS015/24035KT
     FM231200 24014G22KT P6SM SCT014 OVC060 PROB30 2314/2317 5SM
      -SNPL BR BKN014
     FM231700 24011KT 6SM -SN SCT009 OVC018
      TEMPO 2317/2320 3SM -SN BR BKN009
     FM232000 26008KT 5SM -FZDZSN BR OVC006=

USA.gov is the U.S. government's official web portal to all federal, state and local government web resources and services.